Tracking 21076 objects as of 10-Aug-2020
HD Live streaming from Space Station
objects crossing your sky now
Track the most recent launched group of Starlink satellites

COSMOS 1275 DEB

Track COSMOS 1275 DEB now!
10-day predictions


NORAD ID: 12714
Int'l Code: 1981-053BJ
Perigee: 957.4 km
Apogee: 1,143.5 km
Inclination: 83.0 °
Period: 106.0 minutes
Semi major axis: 7421 km
RCS: 0.2013 m2 (medium)
Launch date: June 4, 1981
Source: Commonwealth of Independent States (former USSR) (CIS)
Launch site: PLESETSK MISSILE AND SPACE COMPLEX (PKMTR)

Note: This is SATELLITE DEBRIS
aabbcc
Your satellite tracking list
Your tracking list is empty




NASA's NSSDC Master Catalog

Two Line Element Set (TLE):
1 12714U 81053BJ  20222.56422775 +.00000144 +00000-0 +17244-3 0  9998
2 12714 082.9736 070.7913 0125366 239.1688 119.7075 13.57910318926622
Source of the keplerian elements: AFSPC